User: anonymous   Login
Location: Unspecified
(0.0000°N, 0.0000°E)
Time: 15:14:47
(UTC+00:00)
Language:

NAVSTAR 65 (USA 213) - Orbit

View from above orbital plane
View from above orbital plane
View from above satellite
View from above satellite

Ground track
Ground track

The orbit data is extracted from the following two-line orbital elements,

1 36585U 10022A   14353.52291325 -.00000038  00000-0  00000+0 0  8155
2 36585 056.0122 016.6859 0037806 035.3556 040.8898 02.00555205 33413
Epoch (UTC): 19 December 2014 12:32:59
Eccentricity: 0.0037806
inclination: 56.0122°
perigee height: 20082 km
apogee height: 20283 km
right ascension of ascending node: 16.6859°
argument of perigee: 35.3556°
revolutions per day: 2.00555205
mean anomaly at epoch: 40.8898°
orbit number at epoch: 3341

The dashed part of the orbit path shows where the satellite is in the earth's shadow,  

DLR